Weather History for KUAO - February, 2012

Change the Weather History Date:

Saturday, February 4, 2012

  Actual Average Record
Temperature  
Mean Temperature 44 °F -  
Max Temperature 59 °F - 59 °F (2012)
Min Temperature 29 °F - 26 °F (2014)
Degree Days  
Heating Degree Days 21    
Month to date heating degree days 74  
Since 1 July heating degree days 2726  
Cooling Degree Days 0    
Month to date cooling degree days 0  
Year to date cooling degree days 0  
Moisture  
Dew Point 31 °F    
Average Humidity 64    
Maximum Humidity 92    
Minimum Humidity 36    
Precipitation  
Precipitation 0.00 in - 0.31 in (1952)
Month to date precipitation T  
Year to date precipitation 7.84  
Sea Level Pressure  
Sea Level Pressure 30.14 in    
Wind  
Wind Speed 4 mph (North)    
Max Wind Speed 10 mph    
Max Gust Speed 14 mph    
Visibility 10 miles    
Events      
T = Trace of Precipitation, MM = Missing Value Source: NWS Daily Summary

Daily Weather History Graph

Daily Weather History Graph

Search for Another Location

Airport or City:

Trip Planner

Search our weather history database for the weather conditions in past years. The results will help you decide how hot, cold, wet, or windy it might be!

Date:

Astronomy

Feb. 04, 2012 Rise Set
Actual Time 7:28 AM PST 5:22 PM PST
Civil Twilight 6:57 AM PST 5:53 PM PST
Nautical Twilight 6:21 AM PST 6:28 PM PST
Astronomical Twilight 5:47 AM PST 7:03 PM PST
Moon 2:19 PM PST (2/4) 5:03 AM PST (2/4)
Length of Visible Light 10h 56m
Length of Day
9h 53m
Waxing Gibbous, 89% of the Moon is Illuminated
Feb 4
Waxing Gibbous
Feb 7
Full
Feb 14
Last Quarter
Feb 21
New
Feb 29
First Quarter

Hourly Weather History & Observations

Time (PST) Temp. Windchill Dew Point Humidity Pressure Visibility Wind Dir Wind Speed Gust Speed Precip Events Conditions
12:53 AM 37.9 °F 32.7 °F 28.9 °F 70% 30.14 in 10.0 mi North 6.9 mph - N/A   Clear
1:53 AM 39.0 °F 35.7 °F 28.9 °F 67% 30.15 in 10.0 mi North 4.6 mph - N/A   Clear
2:53 AM 37.0 °F 32.4 °F 28.9 °F 73% 30.15 in 10.0 mi NNW 5.8 mph - N/A   Clear
3:53 AM 35.1 °F 30.1 °F 28.9 °F 78% 30.14 in 10.0 mi North 5.8 mph - N/A   Clear
4:53 AM 30.0 °F - 28.9 °F 96% 30.14 in 10.0 mi Calm Calm - N/A   Clear
5:53 AM 30.9 °F - 28.9 °F 92% 30.15 in 10.0 mi Calm Calm - N/A   Clear
6:53 AM 30.0 °F - 28.0 °F 92% 30.15 in 10.0 mi Calm Calm - N/A   Clear
7:53 AM 30.9 °F - 28.9 °F 92% 30.15 in 10.0 mi Calm Calm - N/A   Clear
8:53 AM 32.0 °F - 30.0 °F 92% 30.16 in 10.0 mi Calm Calm - N/A   Clear
9:53 AM 37.9 °F 35.5 °F 33.1 °F 83% 30.17 in 10.0 mi South 3.5 mph - N/A   Clear
10:53 AM 45.0 °F - 34.0 °F 65% 30.16 in 10.0 mi Calm Calm - N/A   Clear
11:53 AM 50.0 °F - 34.0 °F 54% 30.14 in 10.0 mi Calm Calm - N/A   Clear
12:53 PM 55.0 °F - 33.1 °F 43% 30.13 in 10.0 mi North 3.5 mph - N/A   Clear
1:53 PM 57.0 °F - 33.1 °F 40% 30.12 in 10.0 mi NNW 4.6 mph - N/A   Clear
2:53 PM 59.0 °F - 32.0 °F 36% 30.12 in 10.0 mi North 8.1 mph - N/A   Clear
3:53 PM 57.0 °F - 33.1 °F 40% 30.11 in 10.0 mi North 8.1 mph - N/A   Clear
4:53 PM 52.0 °F - 33.1 °F 49% 30.12 in 10.0 mi North 5.8 mph - N/A   Clear
5:53 PM 46.0 °F 42.5 °F 32.0 °F 58% 30.12 in 10.0 mi North 6.9 mph - N/A   Clear
6:53 PM 43.0 °F 39.5 °F 30.9 °F 62% 30.13 in 10.0 mi North 5.8 mph - N/A   Clear
7:53 PM 41.0 °F 38.0 °F 30.9 °F 67% 30.14 in 10.0 mi NNW 4.6 mph - N/A   Clear
8:53 PM 39.9 °F 36.7 °F 30.9 °F 70% 30.15 in 10.0 mi NNW 4.6 mph - N/A   Clear
9:53 PM 39.0 °F 33.4 °F 30.0 °F 70% 30.15 in 10.0 mi North 8.1 mph - N/A   Clear
10:53 PM 39.9 °F 35.1 °F 30.0 °F 68% 30.16 in 10.0 mi NNW 6.9 mph - N/A   Clear
11:53 PM 39.9 °F 36.7 °F 30.0 °F 68% 30.17 in 10.0 mi North 4.6 mph - N/A   Clear